Location: Breux
(46.3269°N, 3.2993°E)
Time: 14:27:28
(UTC+00:00)

SeaSat 1 - Pass Details

Date: 09 April 2020
Orbit: 745 x 746 km, 108.0° (Epoch: 28 May)

Event Time Altitude Azimuth Distance (km) Brightness Sun altitude
Rises 19:50:45 0° 21° (NNE) 3,200 5.8 -14.4°
Reaches altitude 10° 19:53:11 10° 12° (NNE) 2,273 5.2 -14.7°
Maximum altitude 19:57:36 34° 309° (NW) 1,218 4.3 -15.4°
Drops below altitude 10° 20:02:00 10° 246° (WSW) 2,261 5.4 -16.1°
Sets 20:04:25 0° 237° (WSW) 3,182 6.1 -16.4°
